Location: Derby
(52.9213°N, 1.4761°W)
Time: 02:56:40
(UTC+01:00)

A-11 Canister half - Pass Details

Date: 27 May 2025
Orbit: 1524 x 1684 km, 47.3° (Epoch: 12 June)

Event Time Altitude Azimuth Distance (km) Brightness Sun altitude
Rises 23:48:37 0° 283° (WNW) 4,755 12.0 -14.0°
Reaches altitude 10° 23:51:55 10° 276° (W) 3,790 11.4 -14.2°
Maximum altitude 00:00:31 38° 213° (SSW) 2,287 9.6 -14.5°
Enters shadow 00:06:57 18° 158° (SSE) 3,254 10.1 -14.8°
